K5EBQ Weather Reports


Display with metric or nautical units.
time (UTC)temp
F
wind
direction
speed
MPH
gust
MPH
rain 1hr
in
rain 24hr
in
rain mn
in
humidity
%
barometer
mb
20260510170020 88 120 0.0 0.0 0.00 0.14 0.01 68 1011.4
20260510164523 87 112 0.0 0.0 0.00 0.14 0.01 70 1011.6
20260510163016 87 86 0.0 0.0 0.00 0.14 0.01 71 1011.6
20260510161515 86 184 0.0 0.0 0.00 0.14 0.01 72 1011.9
20260510160013 85 67 0.0 0.0 0.00 0.14 0.01 73 1012.1
20260510154510 84 53 0.0 0.0 0.00 0.14 0.01 75 1012.2
20260510153009 83 22 0.0 0.0 0.00 0.14 0.01 77 1012.3
20260510151506 83 65 0.0 0.0 0.00 0.14 0.01 77 1012.3
20260510150005 83 72 0.0 0.0 0.00 0.14 0.01 78 1012.3
20260510144509 83 69 0.0 0.0 0.00 0.14 0.01 79 1012.1
20260510143100 82 94 0.0 0.0 0.00 0.14 0.01 81 1012.1
20260510141604 81 84 0.0 0.0 0.01 0.14 0.01 82 1012.2
20260510140057 81 45 0.0 0.0 0.01 0.14 0.01 82 1012.2
20260510134603 80 109 0.0 0.0 0.01 0.14 0.01 86 1011.9
20260510133102 78 113 0.0 0.0 0.01 0.14 0.01 89 1011.7
20260510131554 76 65 0.0 0.0 0.00 0.13 0.00 92 1011.5
20260510130042 76 164 0.0 0.0 0.00 0.13 0.00 93 1011.3
20260510124542 75 164 0.0 0.0 0.00 0.13 0.00 94 1011.0
20260510123052 75 164 0.0 0.0 0.00 0.13 0.00 95 1010.8
20260510121536 74 164 0.0 0.0 0.00 0.13 0.00 95 1010.4
20260510120034 74 164 0.0 0.0 0.00 0.13 0.00 95 1010.2
20260510114534 74 164 0.0 0.0 0.00 0.13 0.00 95 1009.7
20260510113033 74 164 0.0 0.0 0.00 0.13 0.00 95 1009.4
20260510111527 73 164 0.0 0.0 0.00 0.13 0.00 95 1009.1
20260510110025 73 164 0.0 0.0 0.00 0.13 0.00 95 1008.8
20260510104525 73 164 0.0 0.0 0.00 0.13 0.00 95 1008.8
20260510103023 73 164 0.0 0.0 0.00 0.13 0.00 95 1008.7
20260510101523 74 164 0.0 0.0 0.00 0.13 0.00 94 1008.6
20260510100022 74 165 0.0 0.0 0.00 0.13 0.00 95 1008.5
20260510094522 74 160 0.0 0.0 0.00 0.13 0.00 95 1008.3
20260510093021 74 144 0.0 0.0 0.00 0.13 0.00 95 1008.3
20260510091520 74 153 0.0 0.0 0.00 0.13 0.00 95 1008.3
20260510090019 73 153 0.0 0.0 0.00 0.13 0.00 95 1008.5
20260510084519 73 152 0.0 0.0 0.00 0.13 0.00 95 1008.3
20260510083018 73 153 0.0 0.0 0.00 0.13 0.00 95 1008.3
20260510081517 73 153 0.0 0.0 0.00 0.13 0.00 94 1008.4
20260510080020 73 153 0.0 0.0 0.00 0.13 0.00 94 1008.5
20260510074513 74 153 0.0 0.0 0.00 0.13 0.00 93 1008.6
20260510073012 74 153 0.0 0.0 0.00 0.13 0.00 93 1008.6
20260510071511 74 153 0.0 0.0 0.00 0.13 0.00 93 1008.6
20260510070008 75 153 0.0 0.0 0.00 0.13 0.00 93 1008.5
20260510064507 75 153 0.0 0.0 0.00 0.13 0.00 92 1008.5
20260510063006 75 153 0.0 0.0 0.00 0.13 0.00 92 1008.5
20260510061505 75 153 0.0 0.0 0.00 0.13 0.00 92 1008.7
20260510060006 75 165 0.0 0.0 0.00 0.13 0.00 92 1008.7
20260510054502 75 157 0.0 0.0 0.00 0.13 0.00 91 1008.7
20260510053100 76 157 0.0 0.0 0.00 0.13 0.00 90 1008.9
20260510051600 76 88 0.0 0.0 0.00 0.13 0.00 90 1008.9
20260510044558 76 128 0.0 0.0 0.00 0.13 0.13 89 1008.9
20260510043107 77 128 0.0 0.0 0.00 0.13 0.13 89 1009.0
20260510041557 77 128 0.0 0.0 0.00 0.13 0.13 89 1009.1
20260510040106 77 104 0.0 0.0 0.00 0.13 0.13 88 1009.0
20260510034555 78 94 0.0 0.0 0.00 0.13 0.13 87 1009.0
20260510033055 78 97 0.0 0.0 0.00 0.13 0.13 87 1009.1
20260510031558 78 115 0.0 0.0 0.00 0.13 0.13 85 1009.2
20260510030051 77 118 0.0 0.0 0.00 0.13 0.13 79 1009.0
20260510024548 75 87 0.0 0.0 0.00 0.13 0.13 84 1008.6
20260510023047 75 174 0.0 0.0 0.00 0.13 0.13 84 1008.1
20260510021548 75 174 0.0 0.0 0.00 0.13 0.13 83 1007.5
20260510020046 75 174 0.0 0.0 0.00 0.13 0.13 82 1007.3
20260510014545 75 174 0.0 0.0 0.00 0.13 0.13 82 1006.8
20260510013044 76 198 0.0 0.0 0.00 0.13 0.13 82 1006.4
20260510011545 76 198 0.0 0.0 0.00 0.13 0.13 79 1006.3
20260510010043 76 198 0.0 0.0 0.00 0.13 0.13 77 1006.1
20260510004543 76 198 0.0 0.0 0.01 0.13 0.13 76 1006.2
20260510003047 76 197 0.0 0.0 0.07 0.13 0.13 76 1006.1
20260510001547 77 211 0.0 0.0 0.12 0.13 0.13 76 1005.9
20260510000041 79 209 0.0 0.0 0.13 0.13 0.13 88 1006.1
20260509234541 80 209 0.0 0.0 0.12 0.12 0.12 87 1005.5
20260509233040 81 204 0.0 0.0 0.06 0.06 0.06 81 1005.5
20260509231539 85 204 0.0 0.0 0.01 0.01 0.01 74 1005.5
20260509230038 88 89 0.0 0.0 0.00 0.00 0.00 66 1005.4
20260509224549 89 88 0.0 0.0 0.00 0.00 0.00 65 1005.1
20260509223038 89 87 0.0 0.0 0.00 0.00 0.00 64 1005.1
20260509221539 89 9 0.0 0.0 0.00 0.00 0.00 64 1005.0
20260509220035 89 9 0.0 0.0 0.00 0.00 0.00 63 1005.0
20260509214534 90 9 0.0 0.0 0.00 0.00 0.00 63 1005.0
20260509213033 90 9 0.0 0.0 0.00 0.00 0.00 63 1005.1
20260509211532 90 5 0.0 0.0 0.00 0.00 0.00 64 1005.2
20260509210032 90 15 0.0 0.0 0.00 0.00 0.00 63 1005.4
20260509204527 91 40 0.0 0.0 0.00 0.00 0.00 63 1005.6
20260509203025 91 47 0.0 0.0 0.00 0.00 0.00 65 1005.7
20260509201522 90 47 0.0 0.0 0.00 0.00 0.00 64 1006.0
20260509200020 89 46 0.0 0.0 0.00 0.00 0.00 65 1006.1
20260509194518 90 107 0.0 0.0 0.00 0.00 0.00 64 1006.3
20260509193016 90 227 0.0 0.0 0.00 0.00 0.00 62 1006.4
20260509191515 89 342 0.0 0.0 0.00 0.00 0.00 64 1006.4
20260509190013 88 232 0.0 0.0 0.00 0.00 0.00 68 1006.6
20260509184517 88 232 0.0 0.0 0.00 0.00 0.00 68 1006.7
20260509183006 86 279 0.0 0.0 0.00 0.00 0.00 71 1006.9
20260509181504 86 161 0.0 0.0 0.00 0.00 0.00 72 1007.2
20260509180003 85 147 0.0 0.0 0.00 0.00 0.00 72 1007.4
20260509174502 85 232 0.0 0.0 0.00 0.00 0.00 74 1007.7
20260509173059 85 141 0.0 0.0 0.00 0.00 0.00 78 1007.9
20260509171557 83 188 0.0 0.0 0.00 0.00 0.00 80 1007.9